Home   Weather   El Paso   Past weeks

Flag for USA Past Weather in El Paso, Texas, USA — Yesterday and Last 2 Weeks

Now
71 °F

Partly sunny.


Feels Like: 77 °F
Forecast: 62 / 80 °F
Wind: 20 mph from East

Location: El Paso International Airport

Current Time: Sep 25, 2016 at 4:40:03 PM

Latest Report: Sep 25, 2016 at 3:51 PM


Visibility: 10 mi

Pressure: 29.98 "Hg (26.26 "Hg at 1142m altitude)

Humidity: 41%

Dew Point: 46 °F

Location of El PasoLocation

Past Weather in El Paso — Graph

°F

El Paso Temperature Yesterday

Maximum temperature yesterday: 83 °F (at 3:51 PM)
Minimum temperature yesterday: 66 °F (at 3:51 AM)
Average temperature yesterday: 75 °F

High & Low Weather Summary for the Past Weeks

 TemperatureHumidityPressure
High95 °F (Sep 19, 3:51 PM)76% (Sep 16, 4:51 AM)30.17 "Hg (Sep 16, 4:51 AM)
Low62 °F (Sep 14, 6:51 AM)9% (Sep 19, 4:51 PM)29.65 "Hg (Sep 22, 4:51 PM)
Average79 °F36%29.85 "Hg
* Reported Sep 10 2:51 PM — Sep 25 2:51 PM, El Paso, Weather by CustomWeather, © 2016

Note: Actual official high and low records may vary slightly from our data, if they occured in-between our weather recording intervals... More about our weather records

Advertising

El Paso Weather History for the Previous 24 Hours

Scroll right to see more
 ConditionsComfort  
Time TempWeatherWind HumidityBarometerVisibility
2:51 PM
Sun, Sep 25
75 °FPartly sunny.18 mph26%29.96 "Hg10 mi
1:51 PM78 °FPartly sunny.16 mph23%29.97 "Hg10 mi
12:51 PM78 °FSunny.17 mph21%29.97 "Hg10 mi
11:51 AM77 °FBroken clouds.16 mph20%29.96 "Hg10 mi
10:51 AM75 °FPartly sunny.13 mph21%29.96 "Hg10 mi
9:51 AM72 °FBroken clouds.13 mph23%29.96 "Hg10 mi
8:51 AM67 °FMore clouds than sun.9 mph27%29.95 "Hg10 mi
7:51 AM66 °FMore clouds than sun.14 mph27%29.93 "Hg10 mi
6:51 AM66 °FOvercast.12 mph26%29.90 "Hg10 mi
5:51 AM64 °FPassing clouds.12 mph28%29.89 "Hg10 mi
4:51 AM65 °FPassing clouds.8 mph26%29.87 "Hg10 mi
3:51 AM66 °FPassing clouds.8 mph25%29.85 "Hg10 mi
2:51 AM68 °FPassing clouds.14 mph26%29.85 "Hg10 mi
1:51 AM64 °FPassing clouds.5 mph40%29.84 "Hg10 mi
12:51 AM65 °FPassing clouds.3 mph40%29.83 "Hg10 mi
11:51 PM
Sat, Sep 24
70 °FPassing clouds.3 mph32%29.82 "Hg10 mi
10:51 PM68 °FClear.5 mph36%29.83 "Hg10 mi
9:51 PM73 °FPassing clouds.6 mph29%29.82 "Hg10 mi
8:51 PM76 °FPassing clouds.6 mph26%29.80 "Hg10 mi
7:51 PM78 °FPassing clouds.5 mph25%29.79 "Hg10 mi
6:51 PM80 °FPassing clouds.9 mph22%29.78 "Hg10 mi
5:51 PM82 °FScattered clouds.12 mph21%29.76 "Hg10 mi
4:51 PM83 °FScattered clouds.16 mph23%29.76 "Hg10 mi
Weather by CustomWeather, © 2016

See weather overviewHow to use our weather pages